Powrót do katalogu

STARLINK-11486

AktywnyŁącznośćVLEO
NORAD 62467·PAYLOAD·🇺🇸 United States

Wystrzelony Dec 31, 2024 z Cape Canaveral Space Force Station

Loading…

Następne Przeloty (najbliższe 24 godziny)

TLE

ŚwieżeSource: CelesTrak SupGP

Epoka: Sep 15, 2026, 03:04 UTC

1 62467C 24254F   26258.12826389  .00106920  00000+0  83030-3 0  2586
2 62467  43.0006 161.4222 0001583 268.5000  15.3081 15.70790373    17

Śledź STARLINK-11486 w czasie rzeczywistym z AllMySat

Download on the App Store